When you browse on this site, cookies collect data to enhance your experience and personalize the content and advertising you see.
Visit our Privacy Policy to learn more. By continuing to use the site, you agree to this use of cookies and data.
  • In Austria
  • List of Countries
  • For 7 days
  • Water Temperature
  • Satellite Maps
  • Weather Map
  • News
  • Weather Widgets
  • user-avatar
    Login

    Hourly Weather Telavi

    Today, 18 November, Sunday

    Time Temperature Precipitation Wind Pressure Humidity
    00:00 +5°C° 0 mm 2 mps 714 mmHg 69%
    01:00 +4°C° 0 mm 2 mps 714 mmHg 69%
    02:00 +4°C° 0 mm 2 mps 713 mmHg 69%
    03:00 +4°C° 0 mm 2 mps 713 mmHg 69%
    04:00 +4°C° 0 mm 2 mps 713 mmHg 70%
    05:00 +4°C° 0 mm 1 mps 713 mmHg 70%
    06:00 +4°C° 0 mm 1 mps 713 mmHg 70%
    07:00 +5°C° 0 mm 1 mps 713 mmHg 65%
    08:00 +6°C° 0 mm 1 mps 713 mmHg 61%
    09:00 +8°C° 0 mm 1 mps 713 mmHg 56%
    10:00 +9°C° 0 mm 1 mps 712 mmHg 53%
    11:00 +10°C° 0 mm 1 mps 712 mmHg 49%
    12:00 +10°C° 0 mm 2 mps 712 mmHg 46%
    13:00 +11°C° 0 mm 1 mps 712 mmHg 46%
    14:00 +11°C° 0 mm 1 mps 712 mmHg 46%
    15:00 +11°C° 0 mm 1 mps 711 mmHg 46%
    16:00 +10°C° 0 mm 1 mps 712 mmHg 51%
    17:00 +9°C° 0 mm 1 mps 712 mmHg 56%
    18:00 +6°C° 0 mm 0 mps 712 mmHg 61%
    19:00 +6°C° 0 mm 0 mps 712 mmHg 62%
    20:00 +7°C° 0 mm 1 mps 712 mmHg 63%
    21:00 +6°C° 0 mm 1 mps 712 mmHg 65%
    22:00 +6°C° 0 mm 1 mps 712 mmHg 65%
    23:00 +5°C° 0 mm 1 mps 712 mmHg 66%

    Tomorrow, 19 November, Monday

    Time Temperature Precipitation Wind Pressure Humidity
    00:00 +5°C° 0 mm 1 mps 712 mmHg 66%
    01:00 +5°C° 0 mm 1 mps 712 mmHg 66%
    02:00 +4°C° 0 mm 1 mps 712 mmHg 67%
    03:00 +4°C° 0 mm 1 mps 712 mmHg 67%
    04:00 +4°C° 0 mm 1 mps 712 mmHg 66%
    05:00 +4°C° 0 mm 1 mps 712 mmHg 66%
    06:00 +4°C° 0 mm 1 mps 712 mmHg 66%
    07:00 +5°C° 0 mm 1 mps 712 mmHg 61%
    08:00 +6°C° 0 mm 1 mps 712 mmHg 57%
    09:00 +7°C° 0 mm 1 mps 712 mmHg 53%
    10:00 +8°C° 0 mm 1 mps 712 mmHg 50%
    11:00 +9°C° 0 mm 1 mps 712 mmHg 47%
    12:00 +10°C° 0 mm 1 mps 712 mmHg 45%
    13:00 +11°C° 0 mm 1 mps 711 mmHg 45%
    14:00 +11°C° 0 mm 1 mps 711 mmHg 45%
    15:00 +11°C° 0 mm 1 mps 711 mmHg 45%
    16:00 +9°C° 0 mm 1 mps 711 mmHg 50%
    17:00 +8°C° 0 mm 1 mps 711 mmHg 55%
    18:00 +7°C° 0 mm 1 mps 711 mmHg 59%
    19:00 +7°C° 0 mm 1 mps 712 mmHg 60%
    20:00 +6°C° 0 mm 1 mps 712 mmHg 61%
    21:00 +6°C° 0 mm 1 mps 712 mmHg 61%
    22:00 +6°C° 0 mm 1 mps 712 mmHg 61%
    23:00 +6°C° 0 mm 1 mps 712 mmHg 62%

    Day after tomorrow, 20 November, Tuesday

    Time Temperature Precipitation Wind Pressure Humidity
    00:00 +5°C° 0 mm 1 mps 712 mmHg 62%
    01:00 +5°C° 0 mm 1 mps 712 mmHg 62%
    02:00 +5°C° 0 mm 1 mps 711 mmHg 62%
    03:00 +5°C° 0 mm 1 mps 711 mmHg 62%
    04:00 +5°C° 0 mm 1 mps 711 mmHg 62%
    05:00 +5°C° 0 mm 1 mps 711 mmHg 62%
    06:00 +5°C° 0 mm 1 mps 711 mmHg 61%
    07:00 +6°C° 0 mm 1 mps 711 mmHg 58%
    08:00 +7°C° 0 mm 1 mps 711 mmHg 54%
    09:00 +9°C° 0 mm 1 mps 711 mmHg 50%
    10:00 +10°C° 0 mm 1 mps 710 mmHg 46%
    11:00 +11°C° 0 mm 1 mps 710 mmHg 43%
    12:00 +13°C° 0 mm 1 mps 710 mmHg 39%
    13:00 +13°C° 0 mm 1 mps 710 mmHg 40%
    14:00 +13°C° 0 mm 1 mps 709 mmHg 41%
    15:00 +13°C° 0 mm 1 mps 709 mmHg 42%
    16:00 +12°C° 0 mm 1 mps 709 mmHg 46%
    17:00 +11°C° 0 mm 1 mps 709 mmHg 51%
    18:00 +10°C° 0 mm 1 mps 709 mmHg 55%
    19:00 +9°C° 0 mm 1 mps 709 mmHg 57%
    20:00 +8°C° 0 mm 2 mps 709 mmHg 60%
    21:00 +7°C° 0 mm 2 mps 710 mmHg 62%
    22:00 +7°C° 0 mm 2 mps 709 mmHg 65%
    23:00 +7°C° 0 mm 2 mps 709 mmHg 67%

    21 November, Wednesday

    Time Temperature Precipitation Wind Pressure Humidity
    00:00 +7°C° 0 mm 2 mps 709 mmHg 69%
    01:00 +7°C° 0 mm 2 mps 709 mmHg 71%
    02:00 +6°C° 0 mm 2 mps 709 mmHg 72%
    03:00 +6°C° 0 mm 2 mps 709 mmHg 74%
    04:00 +6°C° 0 mm 2 mps 709 mmHg 75%
    05:00 +6°C° 0 mm 2 mps 709 mmHg 76%
    06:00 +6°C° 0 mm 2 mps 709 mmHg 77%
    07:00 +7°C° 0 mm 3 mps 709 mmHg 72%
    08:00 +8°C° 0 mm 3 mps 709 mmHg 67%
    09:00 +10°C° 0 mm 3 mps 709 mmHg 62%
    10:00 +11°C° 0 mm 3 mps 709 mmHg 57%
    11:00 +12°C° 0 mm 4 mps 708 mmHg 52%
    12:00 +13°C° 0 mm 4 mps 708 mmHg 47%
    13:00 +13°C° 0 mm 4 mps 708 mmHg 47%
    14:00 +13°C° 0 mm 3 mps 707 mmHg 47%
    15:00 +13°C° 0 mm 3 mps 707 mmHg 47%
    16:00 +13°C° 0 mm 2 mps 707 mmHg 53%
    17:00 +12°C° 0 mm 1 mps 707 mmHg 59%
    18:00 +10°C° 0 mm 1 mps 708 mmHg 64%
    19:00 +10°C° 0 mm 1 mps 708 mmHg 65%
    20:00 +9°C° 0 mm 1 mps 708 mmHg 66%
    21:00 +9°C° 0 mm 1 mps 708 mmHg 67%
    22:00 +9°C° 0 mm 1 mps 708 mmHg 67%
    23:00 +8°C° 0 mm 1 mps 707 mmHg 68%

    22 November, Thursday

    Time Temperature Precipitation Wind Pressure Humidity
    00:00 +8°C° 0 mm 1 mps 707 mmHg 68%
    01:00 +8°C° 0 mm 1 mps 707 mmHg 68%
    02:00 +7°C° 0 mm 1 mps 707 mmHg 68%
    03:00 +7°C° 0 mm 1 mps 707 mmHg 69%
    04:00 +7°C° 0 mm 1 mps 706 mmHg 69%
    05:00 +7°C° 0 mm 1 mps 706 mmHg 70%
    06:00 +7°C° 0 mm 1 mps 706 mmHg 70%
    07:00 +7°C° 0 mm 1 mps 706 mmHg 68%
    08:00 +7°C° 0 mm 0 mps 706 mmHg 66%
    09:00 +8°C° 0 mm 0 mps 706 mmHg 63%
    10:00 +9°C° 0 mm 1 mps 706 mmHg 61%
    11:00 +10°C° 0 mm 1 mps 706 mmHg 59%
    12:00 +11°C° 0 mm 1 mps 705 mmHg 57%
    13:00 +11°C° 0.1 mm 1 mps 705 mmHg 58%
    14:00 +11°C° 0.1 mm 1 mps 705 mmHg 58%
    15:00 +11°C° 0.1 mm 1 mps 705 mmHg 59%
    16:00 +9°C° 0.1 mm 0 mps 705 mmHg 63%
    17:00 +8°C° 0.1 mm 0 mps 705 mmHg 68%
    18:00 +8°C° 0.1 mm 0 mps 705 mmHg 72%
    19:00 +7°C° 0.1 mm 0 mps 706 mmHg 74%
    20:00 +7°C° 0.1 mm 0 mps 706 mmHg 76%
    21:00 +7°C° 0.1 mm 0 mps 706 mmHg 78%
    22:00 +7°C° 0.1 mm 0 mps 706 mmHg 79%
    23:00 +7°C° 0.1 mm 0 mps 706 mmHg 80%

    23 November, Friday

    Time Temperature Precipitation Wind Pressure Humidity
    00:00 +6°C° 0.1 mm 0 mps 706 mmHg 81%
    01:00 +6°C° 0.1 mm 0 mps 706 mmHg 82%
    02:00 +6°C° 0.1 mm 0 mps 706 mmHg 83%
    03:00 +6°C° 0.1 mm 0 mps 706 mmHg 85%
    04:00 +6°C° 0.1 mm 0 mps 706 mmHg 85%
    05:00 +6°C° 0.1 mm 0 mps 706 mmHg 85%
    06:00 +6°C° 0.1 mm 0 mps 706 mmHg 85%
    07:00 +6°C° 0.2 mm 0 mps 706 mmHg 83%
    08:00 +8°C° 0.2 mm 1 mps 707 mmHg 81%
    09:00 +8°C° 0.2 mm 1 mps 707 mmHg 79%
    10:00 +8°C° 0.4 mm 1 mps 707 mmHg 78%
    11:00 +9°C° 0.4 mm 1 mps 707 mmHg 77%
    12:00 +9°C° 0.4 mm 1 mps 707 mmHg 76%
    13:00 +9°C° 0.4 mm 1 mps 708 mmHg 76%
    14:00 +9°C° 0.4 mm 1 mps 708 mmHg 77%
    15:00 +9°C° 0.4 mm 1 mps 708 mmHg 77%
    16:00 +9°C° 0.1 mm 1 mps 709 mmHg 79%
    17:00 +8°C° 0.1 mm 1 mps 709 mmHg 82%
    18:00 +8°C° 0.1 mm 1 mps 710 mmHg 84%
    19:00 +8°C° 0 mm 1 mps 711 mmHg 84%
    20:00 +7°C° 0 mm 1 mps 711 mmHg 85%
    21:00 +7°C° 0 mm 1 mps 712 mmHg 85%
    22:00 +7°C° 0.1 mm 1 mps 712 mmHg 86%
    23:00 +7°C° 0.1 mm 1 mps 712 mmHg 86%
    Show more